User: anonymous   Login
Location: Unspecified
(0.0000°N, 0.0000°E)
Time: 22:42:24
(UTC+00:00)
Language:

TBA - TO BE ASSIGNED - Orbit

View from above orbital plane
View from above orbital plane
View from above satellite
View from above satellite

Ground track
Ground track

The orbit is defined by the following mean orbital elements,

1 68789U          26145.58335647 +.00000000 +00000-0 -23290-1 0 00008
2 68789  97.2850 182.4705 0001707  93.7455 116.2422 15.62939664    05
Epoch (UTC): 25 May 2026 14:00:01
Eccentricity: 0.0001707
inclination: 97.2850°
perigee height: 378 km
apogee height: 380 km
right ascension of ascending node: 182.4705°
argument of perigee: 93.7455°
revolutions per day: 15.62939664
mean anomaly at epoch: 116.2422°

The dashed part of the orbit path shows where the satellite is in the earth's shadow,  

DLR